Willimantic, CT

6:03 AM EST on December 12, 2019 (GMT -0500)
Windham

Weather History for KIJD - November, 2019

Change the Weather History Date:

Monday, November 18, 2019

  Actual Average Record
Temperature  
Mean Temperature 39 °F -  
Max Temperature 43 °F 49 °F 72 °F (1953)
Min Temperature 35 °F 28 °F 18 °F (1959)
Degree Days  
Heating Degree Days 26    
Moisture  
Dew Point 34 °F    
Average Humidity 83    
Maximum Humidity 93    
Minimum Humidity 73    
Precipitation  
Precipitation 0.03 in - - ()
Sea Level Pressure  
Sea Level Pressure 29.82 in    
Wind  
Wind Speed 8 mph ()    
Max Wind Speed 15 mph    
Max Gust Speed 20 mph    
Visibility 8.6 miles    
Events Rain    
Averages and records for this station are not official NWS values.
T = Trace of Precipitation, MM = Missing Value Source: Averaged Metar Reports

Daily Weather History Graph

Daily Weather History Graph

Search for Another Location

Airport or City:

Astronomy

Nov. 18, 2019 Rise Set
Actual Time 6:41 AM EST 4:25 PM EST
Civil Twilight 6:11 AM EST 4:56 PM EST
Nautical Twilight 5:37 AM EST 5:29 PM EST
Astronomical Twilight 5:04 AM EST 6:02 PM EST
Moon 10:07 PM EST (11/18) 12:10 PM EST (11/18)
Length of Visible Light 10h 44m
Length of Day
9h 44m
Waning Gibbous, 63% of the Moon is Illuminated
Nov 18
Waning Gibbous
Nov 19
Last Quarter
Nov 26
New
Dec 4
First Quarter
Dec 12
Full

Hourly Weather History & Observations

Time (EST) Temp. Windchill Dew Point Humidity Pressure Visibility Wind Dir Wind Speed Gust Speed Precip Events Conditions
12:52 AM 36.0 °F 29.0 °F 28.9 °F 76% 30.05 in 10.0 mi NNE 9.2 mph - N/A   Overcast
1:52 AM 36.0 °F 28.0 °F 28.9 °F 76% 30.02 in 10.0 mi NE 11.5 mph - N/A   Overcast
2:52 AM 35.1 °F 29.3 °F 28.9 °F 78% 29.99 in 10.0 mi NNE 6.9 mph - N/A   Mostly Cloudy
3:52 AM 36.0 °F 28.5 °F 28.9 °F 76% 29.97 in 10.0 mi NNE 10.4 mph - N/A   Overcast
4:52 AM 36.0 °F 29.0 °F 28.0 °F 73% 29.95 in 10.0 mi NNE 9.2 mph - N/A   Overcast
5:52 AM 35.1 °F 25.9 °F 28.0 °F 76% 29.94 in 10.0 mi NNE 13.8 mph - N/A   Overcast
6:52 AM 36.0 °F 28.5 °F 28.0 °F 73% 29.94 in 10.0 mi NNE 10.4 mph - N/A   Overcast
7:52 AM 36.0 °F 27.1 °F 28.9 °F 76% 29.92 in 10.0 mi NNE 13.8 mph 19.6 mph N/A   Overcast
8:52 AM 37.0 °F 29.3 °F 32.0 °F 82% 29.89 in 3.0 mi NNE 11.5 mph 19.6 mph 0.00 in Rain Light Rain
9:52 AM 37.0 °F 29.8 °F 35.1 °F 93% 29.86 in 2.0 mi NNE 10.4 mph - 0.01 in Rain Light Rain
10:04 AM 37.0 °F 31.0 °F 35.1 °F 93% 29.85 in 2.0 mi North 8.1 mph - 0.01 in Rain Light Rain
10:15 AM 37.0 °F 31.0 °F 35.1 °F 93% 29.85 in 2.5 mi North 8.1 mph - 0.02 in Rain Light Rain
10:24 AM 37.9 °F 32.1 °F 35.1 °F 89% 29.85 in 4.0 mi North 8.1 mph - 0.02 in Rain Light Rain
10:52 AM 39.0 °F 32.8 °F 36.0 °F 89% 29.83 in 6.0 mi NNE 9.2 mph - 0.02 in Rain Light Rain
11:52 AM 39.9 °F 31.8 °F 37.0 °F 89% 29.78 in 10.0 mi NNE 15.0 mph - 0.00 in   Overcast
12:52 PM 41.0 °F 35.8 °F 37.0 °F 86% 29.75 in 10.0 mi North 8.1 mph - N/A   Overcast
1:52 PM 42.1 °F 37.1 °F 37.0 °F 82% 29.73 in 10.0 mi NNE 8.1 mph - N/A   Overcast
2:52 PM 43.0 °F 37.7 °F 37.9 °F 82% 29.72 in 10.0 mi North 9.2 mph - N/A   Overcast
3:07 PM 43.0 °F 38.2 °F 37.9 °F 82% 29.70 in 10.0 mi North 8.1 mph - N/A   Overcast
3:52 PM 43.0 °F 38.2 °F 37.9 °F 82% 29.70 in 10.0 mi North 8.1 mph - N/A   Overcast
4:52 PM 43.0 °F 38.8 °F 37.9 °F 82% 29.70 in 10.0 mi North 6.9 mph - N/A   Overcast
5:52 PM 43.0 °F 37.2 °F 37.0 °F 80% 29.69 in 10.0 mi North 10.4 mph - N/A   Overcast
6:52 PM 43.0 °F 40.3 °F 37.9 °F 82% 29.69 in 10.0 mi NNW 4.6 mph - N/A   Overcast
7:47 PM 42.8 °F 40.1 °F 37.4 °F 81% 29.69 in 10.0 mi North 4.6 mph - N/A   Overcast
7:52 PM 42.1 °F 39.2 °F 37.9 °F 85% 29.70 in 10.0 mi North 4.6 mph - N/A   Overcast
8:52 PM 42.1 °F 38.4 °F 37.9 °F 85% 29.69 in 10.0 mi North 5.8 mph - N/A   Overcast
10:52 PM 39.0 °F 36.8 °F 36.0 °F 89% 29.69 in 10.0 mi WSW 3.5 mph - N/A   Overcast
11:52 PM 39.0 °F - 35.1 °F 86% 29.70 in 10.0 mi Calm Calm - N/A   Overcast